Showing default

LEMUR 2 NEUROSPICY, 63355

Orbit data source: Space-Track

LEMUR 2 NEUROSPICY, 63355 is a payload satellite owned by OroraTech (US) in SSO that was launched on Wed, 26 Mar 2025 UTC via an ELECTRON launch vehicle from the Rocket Lab Launch Complex (RLLC). Payload-class satellites include a variety of spacecraft equipped with specific instruments for various scientific and technological missions. These include communications satellites like Starlink; space stations such as the ISS; scientific satellites like the Hubble; Earth observation satellites from companies like Planet Labs, Umbra, and HawkEye 360; GPS; miniature CubeSats for education and research; and military/defense satellites.

Loading next visibility...
Identifier
63355, 2025-061E
Orbit
SSO
Last TLE update
13 hours ago
Origin
Manufacturer
Spire/Glasgow
Mission
Operational Commercial Imaging
Bus & Motor
CUBESAT 6U, Unknown motor
Mass
~15 kg wet, ~15 kg dry
Launch date (UTC)
2025-03-26 (3 months ago)
Launch vehicle
ELECTRON
Launch site
Rocket Lab Launch Complex (RLLC)
Object type
Payload
Rocket body
Debris
Shape & HBR
Box + 2 Pan, 0.4 m
Radar Cross Section
0.065 m², Medium (>0.1 m² and < 1m²)

Expand to show TLE details & history

TLE from 13 hours ago
0 LEMUR 2 NEUROSPICY
1 63355U 25061E   25183.63016566  .00003552  00000-0  22008-3 0  9998
2 63355  97.5202 158.4733 0019173  28.1148 332.1112 15.10262712 14785
Epoch: 2025-07-02T15:07Z
TLE epoch observation values (Epoch: 2025-07-02T15:07:26.313Z)
Latitude
-0.00005°
Longitude
10.70516°
Altitude
526.759 km
Speed
7.606 km/s
True Right ascension
10h 33m 53s
True Declination
0° 00' 00"
Sunlit
Object was in daylight at epoch
Visualization orbit readout
Latitude
-40.94857°
Longitude
17.75948°
Altitude
546.024 km
Speed
7.59 km/s
Apparent Right ascension
07h 25m 23s
Apparent Declination
-57° 19' 31"
Sunlit
Object is in daylight
Visualization observer readout
Local Sidereal Time
15:25:01
Azimuth
224.701° SW
Elevation
-48.295°
Doppler factor
1
Orbital elements
Apogee altitude
545.631 km
Perigee altitude
519.132 km
Semi-major axis
6,910.519 km
Eccentricity
0.00192
Inclination
97.5202°
RAAN
158.4733°
Arg. of periapsis
28.1148°
True anomaly
Unknown
Mean anomaly
332.1112°
Eccentric anomaly
Unknown
Mean motion
3.77813 °/min
Orbital period
95.29 mins
BSTAR
0.00022008
Loading maneuver chart data...
Loading SW <> Apogee altitude chart data...
Loading historical data...
Loading historical data...
Loading historical data...
Loading historical data...
Loading historical data...
Loading historical data...
Loading historical data...

LEMUR 2 NEUROSPICY Visibility forecast

Observer location: undefined°, undefined°

Span
Click to sort rows by Start time (UTC) header in descending order
Start Az.
Max El. time (UTC)
Max El. Az.
Max El.
End time (UTC)
End Az.
6 mins2025-07-03 10:46:48.067Z34.178° NE2025-07-03 10:49:48.067Z112.034° ESE32.391°2025-07-03 10:52:48.067Z167.455° S
5 mins2025-07-03 23:03:48.067Z217.613° SW2025-07-03 23:05:48.067Z261.905° W24.013°2025-07-03 23:08:48.067Z319.994° NNW
|